Regional Weather Roundup
Issued by NWS

Home | Current Version | Previous Version | Graphics & Text | Print | Product List | Glossary On
Versions: 1 2 3 4 5 6 7 8 9 10 11 12 13 14 15 16 17 18 19 20 21 22 23 24 25 26 27 28 29 30 31 32 33 34 35 36 37 38 39 40 41 42 43 44 45 46 47 48 49 50
000
ASUS43 KOAX 181010
RWRNE

WEATHER ROUNDUP FOR NEBRASKA
NATIONAL WEATHER SERVICE OMAHA NE
400 AM CST WED JAN 18 2017

NOTES: SATELLITE DATA IS BEING USED TO AUGMENT CLOUD COVER ABOVE
       12000 FEET.
       "FAIR" INDICATES FEW OR NO CLOUDS BELOW 12,000 FEET WITH NO
       SIGNIFICANT WEATHER AND/OR OBSTRUCTIONS TO VISIBILITY.

  * THESE STATIONS DO NOT REPORT WEATHER SUCH AS RAIN...SNOW OR FOG.

NEZ001>004-019>022-054>056-181100-
NEBRASKA PANHANDLE

CITY           SKY/WX    TMP DP  RH WIND       PRES   REMARKS
SCOTTSBLUFF    CLOUDY    21  14  74 W6        29.96S WCI  13
ALLIANCE       CLOUDY    16  11  80 W8        29.93F WCI   5
CHADRON        CLOUDY    27  15  61 SW7       29.93F WCI  19
KIMBALL        CLOUDY    24  19  81 W9        29.95F WCI  15
SIDNEY         CLOUDY    23  18  81 NW12      29.94F WCI  12
$$

NEZ057>060-069>072-079>082-181100-
SOUTHWEST NEBRASKA

CITY           SKY/WX    TMP DP  RH WIND       PRES   REMARKS
NORTH PLATTE   CLOUDY    25  23  92 CALM      29.98F
IMPERIAL       CLOUDY    26  22  84 W9        29.97F WCI  17
LEXINGTON      CLOUDY    32  28  86 SW5       29.99F WCI  27
MCCOOK         CLEAR     26  26 100 SW7       30.01F WCI  18
OGALLALA       CLOUDY    21  19  93 CALM      29.97S FOG
$$

NEZ005>010-023>029-035>040-094-181100-
NORTH CENTRAL NEBRASKA

CITY           SKY/WX    TMP DP  RH WIND       PRES   REMARKS
VALENTINE      CLOUDY    23  18  81 SW14      29.91S WCI  11
AINSWORTH      CLOUDY    28  25  89 SW9       29.92S WCI  19
BROKEN BOW     CLOUDY    30  27  88 CALM      29.96F
O`NEILL        CLOUDY    34  31  87 SW12      29.93F WCI  25
ORD            CLOUDY    32  25  75 SW8       29.96F WCI  25
THEDFORD       CLOUDY    29  26  89 W9        29.93F WCI  20
$$

NEZ041-046>049-061>064-073>077-083>087-181100-
SOUTH CENTRAL NEBRASKA

CITY           SKY/WX    TMP DP  RH WIND       PRES   REMARKS
GRAND ISLAND   CLOUDY    34  29  82 SW12      30.01F WCI  25
AURORA         CLOUDY    32  29  88 SW8       30.02F WCI  25
HASTINGS       CLOUDY    33  27  78 SW8       30.04F WCI  26
HEBRON         CLOUDY    32  28  88 SW6       30.07F WCI  26
HOLDREGE       CLEAR     32  28  85 SW12      30.02F WCI  23
KEARNEY *      CLOUDY    32  27  80 SW8       30.01F WCI  25
YORK           CLOUDY    32  28  86 SW8       30.04F WCI  25
$$

NEZ011>018-030>034-042>045-181100-
NORTHEAST NEBRASKA

CITY           SKY/WX    TMP DP  RH WIND       PRES   REMARKS
NORFOLK        CLOUDY    33  27  78 SW7       29.97F WCI  27
ALBION         CLOUDY    32  26  80 NW3       29.98F
BLAIR          CLOUDY    29  28  93 S3        30.03F
FREMONT        CLOUDY    30  29  96 S5        30.04S WCI  25
TEKAMAH        CLEAR     28  26  92 SE7       30.03F WCI  21
WAYNE          CLOUDY    31  28  90 S7        29.98F WCI  24
$$

NEZ050>053-065>068-078-088>093-181100-
SOUTHEAST NEBRASKA

CITY           SKY/WX    TMP DP  RH WIND       PRES   REMARKS
LINCOLN        CLOUDY    29  27  92 S3        30.07F
OMAHA EPPLEY   CLOUDY    26  21  81 S10       30.07F WCI  16
BEATRICE       CLOUDY    29  27  94 S3        30.08F
FALLS CITY     CLOUDY    28  25  88 S5        30.11F WCI  23
NEBRASKA CITY  CLOUDY    26  26 100 S7        30.08F WCI  18
PLATTSMOUTH    CLOUDY    29  25  87 S7        30.07F WCI  22
$$

NEZ044-045-051>053-067-181100-
OMAHA AREA

CITY           SKY/WX    TMP DP  RH WIND       PRES   REMARKS
OMAHA EPPLEY   CLOUDY    26  21  81 S10       30.07F WCI  16
BLAIR          CLOUDY    29  28  93 S3        30.03F
FREMONT        CLOUDY    30  29  96 S5        30.04S WCI  25
MILLARD        CLOUDY    27  26  94 CALM      30.07S
OFFUTT AFB     CLOUDY    25  25 100 E3        30.07F
PLATTSMOUTH    CLOUDY    29  25  87 S7        30.07F WCI  22
WAHOO          FAIR      29  28  94 S7        30.05S WCI  22
$$



USA.gov is the U.S. government's official web portal to all federal, state and local government web resources and services.